Location: Burera
(21.3780°N, 81.9534°E)
Time: 11:24:19
(UTC+00:00)

NOSS 3-4 (C) - Pass Details

Date: 13 August 2020
Orbit: 885 x 1327 km, 63.4° (Epoch: 19 September)

Event Time Altitude Azimuth Distance (km) Brightness Sun altitude
Exits shadow 23:37:23 - 226° (SW) 2,842 5.4 -8.2°
Reaches altitude 10° 23:38:13 10° 229° (SW) 2,543 5.1 -8.0°
Maximum altitude 23:43:42 42° 299° (WNW) 1,243 3.8 -6.8°
Drops below altitude 10° 23:49:18 10° 10° (N) 2,592 6.1 -5.5°
Sets 23:52:01 0° 17° (NNE) 3,575 7.0 -4.9°
